Wetterdaten: Donnerstag, 25.03.2010
Datum Zeit Temp. A. Feuchte A. Luftdruck Regen Wind Richtung Richtung Sonnenschein UV Solar Windben
25.03.2010 00:00 7,9 C 81 % 1009,1 hPa 0,0 mm 0,0 km/h (0 Bft) N 0 0 min 0 UV-I 0 W/m 0,0 km/h (0 Bft)
25.03.2010 00:10 7,7 C 81 % 1009,0 hPa 0,0 mm 0,0 km/h (0 Bft) N 0 0 min 0 UV-I 0 W/m 0,0 km/h (0 Bft)
25.03.2010 00:20 7,4 C 83 % 1009,1 hPa 0,0 mm 0,0 km/h (0 Bft) N 0 0 min 0 UV-I 0 W/m 0,0 km/h (0 Bft)
25.03.2010 00:30 7,3 C 84 % 1009,1 hPa 0,0 mm 0,0 km/h (0 Bft) N 0 0 min 0 UV-I 0 W/m 0,0 km/h (0 Bft)
25.03.2010 00:40 7,3 C 83 % 1009,1 hPa 0,0 mm 0,0 km/h (0 Bft) N 0 0 min 0 UV-I 0 W/m 0,0 km/h (0 Bft)
25.03.2010 00:50 7,2 C 84 % 1009,0 hPa 0,0 mm 0,0 km/h (0 Bft) N 0 0 min 0 UV-I 0 W/m 0,0 km/h (0 Bft)
25.03.2010 01:00 7,0 C 84 % 1008,9 hPa 0,0 mm 0,0 km/h (0 Bft) N 0 0 min 0 UV-I 0 W/m 0,0 km/h (0 Bft)
25.03.2010 01:10 6,8 C 85 % 1008,8 hPa 0,0 mm 0,0 km/h (0 Bft) N 0 0 min 0 UV-I 0 W/m 0,0 km/h (0 Bft)
25.03.2010 01:20 6,7 C 85 % 1008,8 hPa 0,0 mm 0,0 km/h (0 Bft) N 0 0 min 0 UV-I 0 W/m 0,0 km/h (0 Bft)
25.03.2010 01:30 6,6 C 86 % 1008,8 hPa 0,0 mm 0,0 km/h (0 Bft) N 0 0 min 0 UV-I 0 W/m 0,0 km/h (0 Bft)
25.03.2010 01:40 6,6 C 86 % 1008,7 hPa 0,0 mm 0,0 km/h (0 Bft) N 0 0 min 0 UV-I 0 W/m 0,0 km/h (0 Bft)
25.03.2010 01:50 6,4 C 86 % 1008,6 hPa 0,0 mm 0,0 km/h (0 Bft) N 0 0 min 0 UV-I 0 W/m 0,0 km/h (0 Bft)
25.03.2010 02:00 6,2 C 87 % 1008,6 hPa 0,0 mm 0,0 km/h (0 Bft) N 0 0 min 0 UV-I 0 W/m 0,0 km/h (0 Bft)
25.03.2010 02:10 6,3 C 86 % 1008,5 hPa 0,0 mm 0,0 km/h (0 Bft) N 0 0 min 0 UV-I 0 W/m 0,0 km/h (0 Bft)
25.03.2010 02:20 6,2 C 87 % 1008,5 hPa 0,0 mm 0,0 km/h (0 Bft) N 0 0 min 0 UV-I 0 W/m 0,0 km/h (0 Bft)
25.03.2010 02:30 5,9 C 87 % 1008,4 hPa 0,0 mm 0,0 km/h (0 Bft) N 0 0 min 0 UV-I 0 W/m 0,0 km/h (0 Bft)
25.03.2010 02:40 5,8 C 88 % 1008,2 hPa 0,0 mm 0,0 km/h (0 Bft) N 0 0 min 0 UV-I 0 W/m 0,0 km/h (0 Bft)
25.03.2010 02:50 5,8 C 88 % 1008,1 hPa 0,0 mm 0,0 km/h (0 Bft) N 0 0 min 0 UV-I 0 W/m 0,0 km/h (0 Bft)
25.03.2010 03:00 5,8 C 88 % 1008,1 hPa 0,0 mm 0,0 km/h (0 Bft) N 0 0 min 0 UV-I 0 W/m 0,0 km/h (0 Bft)
25.03.2010 03:10 5,7 C 88 % 1008,1 hPa 0,0 mm 0,0 km/h (0 Bft) N 0 0 min 0 UV-I 0 W/m 0,0 km/h (0 Bft)
25.03.2010 03:20 5,7 C 89 % 1008,0 hPa 0,0 mm 0,0 km/h (0 Bft) N 0 0 min 0 UV-I 0 W/m 0,0 km/h (0 Bft)
25.03.2010 03:30 5,7 C 88 % 1007,9 hPa 0,0 mm 0,0 km/h (0 Bft) N 0 0 min 0 UV-I 0 W/m 0,0 km/h (0 Bft)
25.03.2010 03:40 5,7 C 88 % 1007,9 hPa 0,0 mm 0,0 km/h (0 Bft) N 0 0 min 0 UV-I 0 W/m 0,0 km/h (0 Bft)
25.03.2010 03:50 5,6 C 88 % 1007,9 hPa 0,0 mm 0,0 km/h (0 Bft) N 0 0 min 0 UV-I 0 W/m 0,0 km/h (0 Bft)
25.03.2010 04:00 5,5 C 88 % 1007,9 hPa 0,0 mm 0,0 km/h (0 Bft) N 0 0 min 0 UV-I 0 W/m 0,0 km/h (0 Bft)
25.03.2010 04:10 5,4 C 88 % 1007,9 hPa 0,0 mm 0,0 km/h (0 Bft) N 0 0 min 0 UV-I 0 W/m 0,0 km/h (0 Bft)
25.03.2010 04:20 5,4 C 89 % 1007,9 hPa 0,0 mm 0,0 km/h (0 Bft) N 0 0 min 0 UV-I 0 W/m 0,0 km/h (0 Bft)
25.03.2010 04:30 5,4 C 89 % 1007,9 hPa 0,0 mm 0,0 km/h (0 Bft) N 0 0 min 0 UV-I 0 W/m 0,0 km/h (0 Bft)
25.03.2010 04:40 5,3 C 89 % 1007,8 hPa 0,0 mm 0,0 km/h (0 Bft) N 0 0 min 0 UV-I 0 W/m 0,0 km/h (0 Bft)
25.03.2010 04:50 5,2 C 89 % 1007,9 hPa 0,0 mm 0,0 km/h (0 Bft) N 0 0 min 0 UV-I 0 W/m 0,0 km/h (0 Bft)
25.03.2010 05:00 5,3 C 89 % 1007,8 hPa 0,0 mm 0,0 km/h (0 Bft) N 0 0 min 0 UV-I 0 W/m 0,0 km/h (0 Bft)
25.03.2010 05:10 5,2 C 89 % 1007,8 hPa 0,0 mm 0,0 km/h (0 Bft) N 0 0 min 0 UV-I 0 W/m 0,0 km/h (0 Bft)
25.03.2010 05:20 5,2 C 89 % 1007,9 hPa 0,0 mm 0,0 km/h (0 Bft) N 0 0 min 0 UV-I 0 W/m 0,0 km/h (0 Bft)
25.03.2010 05:30 5,1 C 89 % 1007,8 hPa 0,0 mm 0,0 km/h (0 Bft) N 0 0 min 0 UV-I 0 W/m 0,0 km/h (0 Bft)
25.03.2010 05:40 5,1 C 89 % 1007,8 hPa 0,0 mm 0,0 km/h (0 Bft) N 0 0 min 0 UV-I 0 W/m 0,0 km/h (0 Bft)
25.03.2010 05:50 5,1 C 89 % 1007,7 hPa 0,0 mm 0,0 km/h (0 Bft) N 0 0 min 0 UV-I 0 W/m 0,0 km/h (0 Bft)
25.03.2010 06:00 5,0 C 89 % 1007,7 hPa 0,0 mm 0,0 km/h (0 Bft) N 0 0 min 0 UV-I 0 W/m 0,0 km/h (0 Bft)
25.03.2010 06:10 4,9 C 89 % 1007,7 hPa 0,0 mm 0,0 km/h (0 Bft) N 0 0 min 0 UV-I 0 W/m 0,0 km/h (0 Bft)
25.03.2010 06:20 4,9 C 89 % 1007,7 hPa 0,0 mm 0,0 km/h (0 Bft) N 0 0 min 0 UV-I 5 W/m 0,0 km/h (0 Bft)
25.03.2010 06:30 4,9 C 89 % 1007,7 hPa 0,0 mm 0,0 km/h (0 Bft) N 0 0 min 0 UV-I 11 W/m 0,0 km/h (0 Bft)
25.03.2010 06:40 4,9 C 89 % 1007,7 hPa 0,0 mm 0,0 km/h (0 Bft) N 0 0 min 0 UV-I 14 W/m 0,0 km/h (0 Bft)
25.03.2010 06:50 4,9 C 89 % 1007,7 hPa 0,0 mm 0,0 km/h (0 Bft) N 0 0 min 0 UV-I 16 W/m 0,0 km/h (0 Bft)
25.03.2010 07:00 5,1 C 89 % 1007,7 hPa 0,0 mm 0,0 km/h (0 Bft) N 0 0 min 0 UV-I 33 W/m 0,0 km/h (0 Bft)
25.03.2010 07:10 5,1 C 90 % 1007,8 hPa 0,0 mm 0,0 km/h (0 Bft) N 0 0 min 0 UV-I 53 W/m 0,0 km/h (0 Bft)
25.03.2010 07:20 5,3 C 90 % 1007,7 hPa 0,0 mm 0,0 km/h (0 Bft) N 0 0 min 0 UV-I 58 W/m 0,0 km/h (0 Bft)
25.03.2010 07:30 5,6 C 91 % 1007,7 hPa 0,0 mm 0,0 km/h (0 Bft) N 0 0 min 0 UV-I 47 W/m 0,0 km/h (0 Bft)
25.03.2010 07:40 5,8 C 91 % 1007,6 hPa 0,0 mm 0,0 km/h (0 Bft) N 0 0 min 0 UV-I 60 W/m 0,0 km/h (0 Bft)
25.03.2010 07:50 7,0 C 91 % 1007,6 hPa 0,0 mm 0,0 km/h (0 Bft) N 0 10 min 0 UV-I 142 W/m 0,0 km/h (0 Bft)
25.03.2010 08:00 8,2 C 89 % 1007,5 hPa 0,0 mm 0,0 km/h (0 Bft) O-SO 121 0 min 0 UV-I 71 W/m 0,0 km/h (0 Bft)
25.03.2010 08:10 8,5 C 88 % 1007,4 hPa 0,0 mm 0,0 km/h (0 Bft) N 0 0 min 1 UV-I 91 W/m 0,0 km/h (0 Bft)
25.03.2010 08:20 9,4 C 85 % 1007,2 hPa 0,0 mm 0,0 km/h (0 Bft) O-SO 112 0 min 1 UV-I 90 W/m 3,2 km/h (1 Bft)
25.03.2010 08:30 10,2 C 80 % 1007,3 hPa 0,0 mm 0,0 km/h (0 Bft) O-SO 112 0 min 1 UV-I 88 W/m 3,2 km/h (1 Bft)
25.03.2010 08:40 10,8 C 78 % 1007,2 hPa 0,0 mm 0,0 km/h (0 Bft) O-SO 112 0 min 1 UV-I 141 W/m 1,6 km/h (1 Bft)
25.03.2010 08:50 11,6 C 76 % 1007,2 hPa 0,0 mm 0,0 km/h (0 Bft) O-SO 112 10 min 1 UV-I 376 W/m 3,2 km/h (1 Bft)
25.03.2010 09:00 12,9 C 73 % 1007,2 hPa 0,0 mm 1,6 km/h (1 Bft) SO 135 10 min 1 UV-I 397 W/m 4,8 km/h (1 Bft)
25.03.2010 09:10 13,1 C 73 % 1004,3 hPa 0,0 mm 0,0 km/h (0 Bft) SO 135 10 min 1 UV-I 519 W/m 3,2 km/h (1 Bft)
25.03.2010 09:20 14,0 C 67 % 1004,5 hPa 0,0 mm 1,6 km/h (1 Bft) O 90 10 min 2 UV-I 522 W/m 6,4 km/h (2 Bft)
25.03.2010 09:30 14,7 C 66 % 1007,0 hPa 0,0 mm 1,6 km/h (1 Bft) O-SO 112 10 min 1 UV-I 262 W/m 8,0 km/h (2 Bft)
25.03.2010 09:40 15,2 C 64 % 1006,9 hPa 0,0 mm 3,2 km/h (1 Bft) O 90 10 min 2 UV-I 462 W/m 8,0 km/h (2 Bft)
25.03.2010 09:50 15,4 C 63 % 1006,9 hPa 0,0 mm 1,6 km/h (1 Bft) O-SO 112 0 min 1 UV-I 220 W/m 6,4 km/h (2 Bft)
25.03.2010 10:00 15,6 C 63 % 1006,9 hPa 0,0 mm 0,0 km/h (0 Bft) O-NO 67 0 min 1 UV-I 160 W/m 3,2 km/h (1 Bft)
25.03.2010 10:10 15,8 C 59 % 1006,9 hPa 0,0 mm 1,6 km/h (1 Bft) O-SO 112 0 min 1 UV-I 218 W/m 6,4 km/h (2 Bft)
25.03.2010 10:20 16,4 C 57 % 1007,0 hPa 0,0 mm 1,6 km/h (1 Bft) S-SW 202 10 min 2 UV-I 434 W/m 8,0 km/h (2 Bft)
25.03.2010 10:30 17,1 C 57 % 1006,8 hPa 0,0 mm 1,6 km/h (1 Bft) SO 135 10 min 3 UV-I 642 W/m 8,0 km/h (2 Bft)
25.03.2010 10:40 17,8 C 55 % 1006,7 hPa 0,0 mm 1,6 km/h (1 Bft) O 90 10 min 3 UV-I 608 W/m 8,0 km/h (2 Bft)
25.03.2010 10:50 18,7 C 50 % 1006,7 hPa 0,0 mm 3,2 km/h (1 Bft) S 180 10 min 3 UV-I 696 W/m 11,3 km/h (2 Bft)
25.03.2010 11:00 19,1 C 49 % 1006,8 hPa 0,0 mm 3,2 km/h (1 Bft) S-SO 157 10 min 3 UV-I 726 W/m 8,0 km/h (2 Bft)
25.03.2010 11:10 18,8 C 51 % 1006,7 hPa 0,0 mm 1,6 km/h (1 Bft) S-SW 202 10 min 2 UV-I 374 W/m 8,0 km/h (2 Bft)
25.03.2010 11:20 18,8 C 51 % 1006,7 hPa 0,0 mm 1,6 km/h (1 Bft) S 180 10 min 2 UV-I 383 W/m 4,8 km/h (1 Bft)
25.03.2010 11:30 18,8 C 51 % 1006,6 hPa 0,0 mm 1,6 km/h (1 Bft) S-SW 202 10 min 2 UV-I 367 W/m 6,4 km/h (2 Bft)
25.03.2010 11:40 18,9 C 53 % 1006,4 hPa 0,0 mm 1,6 km/h (1 Bft) O-SO 112 0 min 2 UV-I 336 W/m 4,8 km/h (1 Bft)
25.03.2010 11:50 19,0 C 52 % 1006,4 hPa 0,0 mm 3,2 km/h (1 Bft) O-SO 112 0 min 2 UV-I 285 W/m 8,0 km/h (2 Bft)
25.03.2010 12:00 18,8 C 56 % 1006,5 hPa 0,0 mm 1,6 km/h (1 Bft) O-SO 112 0 min 2 UV-I 221 W/m 6,4 km/h (2 Bft)
25.03.2010 12:10 18,6 C 55 % 1006,4 hPa 0,0 mm 0,0 km/h (0 Bft) S 180 0 min 1 UV-I 199 W/m 4,8 km/h (1 Bft)
25.03.2010 12:20 18,7 C 54 % 1006,0 hPa 0,0 mm 3,2 km/h (1 Bft) O 90 10 min 2 UV-I 390 W/m 9,7 km/h (2 Bft)
25.03.2010 12:30 19,3 C 53 % 1005,9 hPa 0,0 mm 3,2 km/h (1 Bft) O-SO 112 10 min 3 UV-I 464 W/m 9,7 km/h (2 Bft)
25.03.2010 12:40 19,7 C 53 % 1006,1 hPa 0,0 mm 6,4 km/h (2 Bft) O-SO 112 10 min 3 UV-I 494 W/m 19,3 km/h (3 Bft)
25.03.2010 12:50 20,1 C 51 % 1005,9 hPa 0,0 mm 4,8 km/h (1 Bft) O 90 10 min 3 UV-I 708 W/m 19,3 km/h (3 Bft)
25.03.2010 13:00 20,6 C 49 % 1005,7 hPa 0,0 mm 4,8 km/h (1 Bft) O-SO 112 10 min 3 UV-I 687 W/m 19,3 km/h (3 Bft)
25.03.2010 13:10 21,2 C 45 % 1005,7 hPa 0,0 mm 3,2 km/h (1 Bft) SO 135 10 min 3 UV-I 689 W/m 11,3 km/h (2 Bft)
25.03.2010 13:20 21,1 C 46 % 1005,5 hPa 0,0 mm 8,0 km/h (2 Bft) O-SO 112 10 min 3 UV-I 714 W/m 24,1 km/h (4 Bft)
25.03.2010 13:30 21,1 C 46 % 1005,5 hPa 0,0 mm 6,4 km/h (2 Bft) O-SO 112 10 min 3 UV-I 735 W/m 19,3 km/h (3 Bft)
25.03.2010 13:40 21,5 C 44 % 1005,4 hPa 0,0 mm 6,4 km/h (2 Bft) O-SO 112 10 min 3 UV-I 749 W/m 20,9 km/h (4 Bft)
25.03.2010 13:50 21,4 C 44 % 1005,3 hPa 0,0 mm 6,4 km/h (2 Bft) SO 135 10 min 3 UV-I 640 W/m 17,7 km/h (3 Bft)
25.03.2010 14:00 20,8 C 46 % 1005,2 hPa 0,0 mm 4,8 km/h (1 Bft) S 180 0 min 2 UV-I 264 W/m 14,5 km/h (3 Bft)
25.03.2010 14:10 20,3 C 47 % 1005,3 hPa 0,0 mm 4,8 km/h (1 Bft) O-SO 112 0 min 2 UV-I 258 W/m 14,5 km/h (3 Bft)
25.03.2010 14:20 20,1 C 46 % 1005,3 hPa 0,0 mm 6,4 km/h (2 Bft) SO 135 0 min 2 UV-I 267 W/m 14,5 km/h (3 Bft)
25.03.2010 14:30 20,1 C 46 % 1005,2 hPa 0,0 mm 3,2 km/h (1 Bft) S 180 0 min 2 UV-I 279 W/m 19,3 km/h (3 Bft)
25.03.2010 14:40 20,0 C 47 % 1005,0 hPa 0,0 mm 4,8 km/h (1 Bft) SO 135 0 min 2 UV-I 248 W/m 17,7 km/h (3 Bft)
25.03.2010 14:50 19,9 C 45 % 1004,8 hPa 0,0 mm 6,4 km/h (2 Bft) O-SO 112 0 min 2 UV-I 227 W/m 20,9 km/h (4 Bft)
25.03.2010 15:00 19,8 C 46 % 1004,7 hPa 0,0 mm 6,4 km/h (2 Bft) SO 135 0 min 1 UV-I 251 W/m 22,5 km/h (4 Bft)
25.03.2010 15:10 19,9 C 45 % 1004,6 hPa 0,0 mm 6,4 km/h (2 Bft) SO 135 0 min 1 UV-I 255 W/m 19,3 km/h (3 Bft)
25.03.2010 15:20 19,9 C 46 % 1004,5 hPa 0,0 mm 6,4 km/h (2 Bft) O-SO 112 0 min 1 UV-I 264 W/m 17,7 km/h (3 Bft)
25.03.2010 15:30 19,9 C 45 % 1004,5 hPa 0,0 mm 6,4 km/h (2 Bft) S-SO 157 10 min 2 UV-I 341 W/m 22,5 km/h (4 Bft)
25.03.2010 15:40 20,7 C 42 % 1004,3 hPa 0,0 mm 6,4 km/h (2 Bft) S-SO 157 10 min 2 UV-I 624 W/m 17,7 km/h (3 Bft)
25.03.2010 15:50 21,6 C 41 % 1004,3 hPa 0,0 mm 6,4 km/h (2 Bft) SO 135 10 min 2 UV-I 534 W/m 20,9 km/h (4 Bft)
25.03.2010 16:00 21,4 C 42 % 1004,2 hPa 0,0 mm 6,5 km/h (2 Bft) O-SO 112 10 min 1 UV-I 401 W/m 11,3 km/h (2 Bft)
25.03.2010 16:10 21,2 C 44 % 1004,3 hPa 0,0 mm 8,0 km/h (2 Bft) SO 135 10 min 1 UV-I 390 W/m 24,1 km/h (4 Bft)
25.03.2010 16:20 20,3 C 44 % 1004,3 hPa 0,0 mm 6,4 km/h (2 Bft) SO 135 10 min 1 UV-I 200 W/m 19,3 km/h (3 Bft)
25.03.2010 16:30 20,0 C 46 % 1004,2 hPa 0,0 mm 3,2 km/h (1 Bft) S-SO 157 10 min 1 UV-I 355 W/m 16,1 km/h (3 Bft)
25.03.2010 16:40 20,3 C 44 % 1004,1 hPa 0,0 mm 4,8 km/h (1 Bft) S 180 10 min 1 UV-I 330 W/m 17,7 km/h (3 Bft)
25.03.2010 16:50 20,9 C 44 % 1004,1 hPa 0,0 mm 3,2 km/h (1 Bft) O-SO 112 10 min 1 UV-I 325 W/m 11,3 km/h (2 Bft)
25.03.2010 17:00 21,2 C 43 % 1004,0 hPa 0,0 mm 4,8 km/h (1 Bft) S-SO 157 10 min 1 UV-I 323 W/m 16,1 km/h (3 Bft)
25.03.2010 17:10 21,2 C 43 % 1004,2 hPa 0,0 mm 4,8 km/h (1 Bft) SO 135 10 min 1 UV-I 309 W/m 17,7 km/h (3 Bft)
25.03.2010 17:20 21,3 C 44 % 1004,1 hPa 0,0 mm 3,2 km/h (1 Bft) S-SO 157 10 min 1 UV-I 276 W/m 14,5 km/h (3 Bft)
25.03.2010 17:30 21,2 C 43 % 1004,1 hPa 0,0 mm 3,2 km/h (1 Bft) S 180 10 min 1 UV-I 207 W/m 11,3 km/h (2 Bft)
25.03.2010 17:40 20,9 C 43 % 1004,2 hPa 0,0 mm 3,2 km/h (1 Bft) SO 135 10 min 1 UV-I 155 W/m 11,3 km/h (2 Bft)
25.03.2010 17:50 20,5 C 43 % 1004,3 hPa 0,0 mm 3,2 km/h (1 Bft) S 180 10 min 0 UV-I 134 W/m 16,1 km/h (3 Bft)
25.03.2010 18:00 19,9 C 43 % 1004,3 hPa 0,0 mm 3,2 km/h (1 Bft) S 180 10 min 0 UV-I 67 W/m 9,7 km/h (2 Bft)
25.03.2010 18:10 19,5 C 44 % 1004,4 hPa 0,0 mm 4,8 km/h (1 Bft) S-SW 202 10 min 0 UV-I 53 W/m 19,3 km/h (3 Bft)
25.03.2010 18:20 19,2 C 45 % 1004,4 hPa 0,0 mm 3,2 km/h (1 Bft) S 180 10 min 0 UV-I 39 W/m 19,3 km/h (3 Bft)
25.03.2010 18:30 18,9 C 47 % 1004,4 hPa 0,0 mm 1,6 km/h (1 Bft) S-SO 157 10 min 0 UV-I 25 W/m 16,1 km/h (3 Bft)
25.03.2010 18:40 18,6 C 48 % 1004,5 hPa 0,0 mm 1,6 km/h (1 Bft) S-SO 157 0 min 0 UV-I 14 W/m 8,0 km/h (2 Bft)
25.03.2010 18:50 18,1 C 49 % 1004,6 hPa 0,0 mm 1,6 km/h (1 Bft) SO 135 0 min 0 UV-I 7 W/m 6,4 km/h (2 Bft)
25.03.2010 19:00 17,8 C 50 % 1004,6 hPa 0,0 mm 1,6 km/h (1 Bft) S-SO 157 0 min 0 UV-I 0 W/m 6,4 km/h (2 Bft)
25.03.2010 19:10 17,5 C 50 % 1004,6 hPa 0,0 mm 1,6 km/h (1 Bft) S-SO 157 0 min 0 UV-I 0 W/m 4,8 km/h (1 Bft)
25.03.2010 19:20 17,4 C 51 % 1004,6 hPa 0,0 mm 0,0 km/h (0 Bft) SO 135 0 min 0 UV-I 0 W/m 4,8 km/h (1 Bft)
25.03.2010 19:30 16,9 C 53 % 1004,7 hPa 0,0 mm 0,0 km/h (0 Bft) SO 135 0 min 0 UV-I 0 W/m 4,8 km/h (1 Bft)
25.03.2010 19:40 16,6 C 54 % 1004,7 hPa 0,0 mm 0,0 km/h (0 Bft) S-SO 157 0 min 0 UV-I 0 W/m 6,4 km/h (2 Bft)
25.03.2010 19:50 16,4 C 54 % 1004,7 hPa 0,0 mm 0,0 km/h (0 Bft) S-SW 202 0 min 0 UV-I 0 W/m 3,2 km/h (1 Bft)
25.03.2010 20:00 16,3 C 55 % 1004,7 hPa 0,0 mm 0,0 km/h (0 Bft) S 180 0 min 0 UV-I 0 W/m 6,4 km/h (2 Bft)
25.03.2010 20:10 16,2 C 55 % 1004,6 hPa 0,0 mm 1,6 km/h (1 Bft) S-SO 157 0 min 0 UV-I 0 W/m 9,7 km/h (2 Bft)
25.03.2010 20:20 16,0 C 55 % 1004,6 hPa 0,0 mm 1,6 km/h (1 Bft) S-SO 157 0 min 0 UV-I 0 W/m 8,0 km/h (2 Bft)
25.03.2010 20:30 15,8 C 55 % 1004,7 hPa 0,0 mm 1,6 km/h (1 Bft) S-SO 157 0 min 0 UV-I 0 W/m 6,4 km/h (2 Bft)
25.03.2010 20:40 15,7 C 56 % 1004,8 hPa 0,0 mm 0,0 km/h (0 Bft) S-SO 157 0 min 0 UV-I 0 W/m 6,4 km/h (2 Bft)
25.03.2010 20:50 15,6 C 57 % 1004,7 hPa 0,0 mm 1,6 km/h (1 Bft) SO 135 0 min 0 UV-I 0 W/m 9,7 km/h (2 Bft)
25.03.2010 21:00 15,6 C 57 % 1004,7 hPa 0,0 mm 1,6 km/h (1 Bft) S-SO 157 0 min 0 UV-I 0 W/m 9,7 km/h (2 Bft)
25.03.2010 21:10 15,6 C 57 % 1004,6 hPa 0,0 mm 1,6 km/h (1 Bft) S 180 0 min 0 UV-I 0 W/m 9,7 km/h (2 Bft)
25.03.2010 21:20 15,6 C 58 % 1004,5 hPa 0,0 mm 1,6 km/h (1 Bft) S-SO 157 0 min 0 UV-I 0 W/m 6,4 km/h (2 Bft)
25.03.2010 21:30 15,5 C 59 % 1004,5 hPa 0,0 mm 1,6 km/h (1 Bft) S-SO 157 0 min 0 UV-I 0 W/m 4,8 km/h (1 Bft)
25.03.2010 21:40 15,3 C 59 % 1004,5 hPa 0,0 mm 1,6 km/h (1 Bft) SO 135 0 min 0 UV-I 0 W/m 6,4 km/h (2 Bft)
25.03.2010 21:50 15,3 C 59 % 1004,6 hPa 0,0 mm 1,6 km/h (1 Bft) SO 135 0 min 0 UV-I 0 W/m 6,4 km/h (2 Bft)
25.03.2010 22:00 15,3 C 59 % 1004,7 hPa 0,0 mm 0,0 km/h (0 Bft) S-SO 157 0 min 0 UV-I 0 W/m 3,2 km/h (1 Bft)
25.03.2010 22:10 15,3 C 59 % 1004,7 hPa 0,0 mm 0,0 km/h (0 Bft) S-SO 157 0 min 0 UV-I 0 W/m 3,2 km/h (1 Bft)
25.03.2010 22:20 15,4 C 61 % 1004,7 hPa 0,0 mm 1,6 km/h (1 Bft) S-SO 157 0 min 0 UV-I 0 W/m 6,4 km/h (2 Bft)
25.03.2010 22:30 15,3 C 60 % 1004,7 hPa 0,0 mm 0,0 km/h (0 Bft) SO 135 0 min 0 UV-I 0 W/m 3,2 km/h (1 Bft)
25.03.2010 22:40 15,2 C 59 % 1004,8 hPa 0,0 mm 0,0 km/h (0 Bft) S 180 0 min 0 UV-I 0 W/m 4,8 km/h (1 Bft)
25.03.2010 22:50 15,2 C 60 % 1004,8 hPa 0,0 mm 0,0 km/h (0 Bft) S 180 0 min 0 UV-I 0 W/m 3,2 km/h (1 Bft)
25.03.2010 23:00 15,0 C 61 % 1004,9 hPa 0,0 mm 0,0 km/h (0 Bft) SO 135 0 min 0 UV-I 0 W/m 4,8 km/h (1 Bft)
25.03.2010 23:10 14,7 C 62 % 1004,9 hPa 0,0 mm 0,0 km/h (0 Bft) S-SO 157 0 min 0 UV-I 0 W/m 6,4 km/h (2 Bft)
25.03.2010 23:20 14,2 C 64 % 1004,9 hPa 0,0 mm 0,0 km/h (0 Bft) S 180 0 min 0 UV-I 0 W/m 1,6 km/h (1 Bft)
25.03.2010 23:30 13,7 C 65 % 1004,9 hPa 0,0 mm 0,0 km/h (0 Bft) SO 135 0 min 0 UV-I 0 W/m 4,8 km/h (1 Bft)
25.03.2010 23:40 13,6 C 65 % 1004,9 hPa 0,0 mm 0,0 km/h (0 Bft) S-SO 157 0 min 0 UV-I 0 W/m 6,4 km/h (2 Bft)
25.03.2010 23:50 13,5 C 65 % 1004,8 hPa 0,0 mm 0,0 km/h (0 Bft) S-SO 157 0 min 0 UV-I 0 W/m 6,4 km/h (2 Bft)
_ Min-Zeit 06:00 15:50 17:00 - 00:00 - - - - - 00:00
Minimum _ 4,9 C 41 % 1004,0 hPa - 0,0 km/h (0 Bft) - - - - - 0,0 km/h (0 Bft)
_ Max-Zeit 15:50 07:30 00:00 00:00 13:20 - - 07:50 12:50 13:40 13:20
Maximum _ 21,8 C 91 % 1009,1 hPa 0,0 mm 8,0 km/h
O-SO (2 Bft)
- - 10 min 3 UV-I 749 W/m 24,1 km/h
O-SO (4 Bft)
Durchschnitt _ 13,6 C 65 % 1006,2 hPa #0,0 mm 1,7 km/h (1 Bft) O-SO - #7:20 h 2 UV-I 303 W/m 6,8 km/h (2 Bft)